K5NCO Weather Reports


Display with metric or nautical units.
time (UTC)temp
F
wind
direction
speed
MPH
gust
MPH
rain 1hr
in
rain 24hr
in
rain mn
in
humidity
%
barometer
mb
20260503044416 60 233 0.0 0.0 0.00 0.00 0.00 77 1023.4
20260503043914 60 233 0.0 0.0 0.00 0.00 0.00 76 1023.4
20260503043411 61 208 0.0 0.0 0.00 0.00 0.00 76 1023.2
20260503042907 61 120 0.0 0.0 0.00 0.00 0.00 75 1023.3
20260503042403 61 120 0.0 0.0 0.00 0.00 0.00 74 1023.4
20260503041859 60 120 0.0 0.0 0.00 0.00 0.00 74 1023.1
20260503041357 60 119 0.0 0.0 0.00 0.00 0.00 75 1023.2
20260503040854 61 119 0.0 0.0 0.00 0.00 0.00 73 1023.2
20260503040352 62 119 0.0 0.0 0.00 0.00 0.00 72 1023.2
20260503035848 62 119 0.0 0.0 0.00 0.00 0.00 70 1023.2
20260503035346 62 120 0.0 0.0 0.00 0.00 0.00 70 1023.3
20260503034843 60 119 0.0 0.0 0.00 0.00 0.00 74 1023.1
20260503034340 60 119 0.0 0.0 0.00 0.00 0.00 73 1023.3
20260503033837 61 119 0.0 0.0 0.00 0.00 0.00 73 1023.2
20260503033335 61 119 0.0 0.0 0.00 0.00 0.00 72 1023.0
20260503032833 61 119 0.0 0.0 0.00 0.00 0.00 71 1023.0
20260503032331 62 119 0.0 0.0 0.00 0.00 0.00 69 1022.8
20260503031828 63 119 0.0 0.0 0.00 0.00 0.00 68 1023.0
20260503031326 63 119 0.0 0.0 0.00 0.00 0.00 67 1023.1
20260503030822 64 119 0.0 0.0 0.00 0.00 0.00 64 1022.8
20260503030319 64 119 0.0 0.0 0.00 0.00 0.00 63 1022.9
20260503025815 64 119 0.0 0.0 0.00 0.00 0.00 65 1022.9
20260503025313 64 119 0.0 0.0 0.00 0.00 0.00 65 1022.8
20260503024809 64 111 0.0 0.0 0.00 0.00 0.00 65 1022.8
20260503024306 64 91 0.0 0.0 0.00 0.00 0.00 64 1022.5
20260503023804 65 91 0.0 0.0 0.00 0.00 0.00 62 1022.3
20260503023301 65 91 0.0 0.0 0.00 0.00 0.00 62 1022.1
20260503022757 65 91 0.0 0.0 0.00 0.00 0.00 61 1022.2
20260503022257 66 91 0.0 0.0 0.00 0.00 0.00 59 1022.1
20260503021754 67 91 0.0 0.0 0.00 0.00 0.00 58 1022.0
20260503021249 67 90 0.0 0.0 0.00 0.00 0.00 57 1022.1
20260503020748 67 90 0.0 0.0 0.00 0.00 0.00 57 1022.0
20260503020245 67 91 0.0 0.0 0.00 0.00 0.00 56 1022.1
20260503015741 68 91 0.0 0.0 0.00 0.00 0.00 55 1022.1
20260503015238 68 91 0.0 1.0 0.00 0.00 0.00 55 1022.0
20260503014734 68 91 1.0 1.0 0.00 0.00 0.00 54 1021.9
20260503014232 68 91 1.0 1.0 0.00 0.00 0.00 53 1021.9
20260503013729 68 80 0.0 0.0 0.00 0.00 0.00 53 1022.0
20260503013227 68 77 0.0 0.0 0.00 0.00 0.00 52 1021.9
20260503012724 68 84 2.0 2.0 0.00 0.00 0.00 52 1021.9
20260503012221 69 74 1.0 1.0 0.00 0.00 0.00 52 1021.9
20260503011718 69 74 1.0 2.0 0.00 0.00 0.00 52 1021.6
20260503011215 69 73 2.0 2.0 0.00 0.00 0.00 51 1021.7
20260503010711 69 64 2.0 2.0 0.00 0.00 0.00 51 1021.8
20260503010208 70 70 1.0 2.0 0.00 0.00 0.00 50 1021.6
20260503005706 70 69 1.0 1.0 0.00 0.00 0.00 49 1021.6
20260503005203 70 78 1.0 2.0 0.00 0.00 0.00 47 1021.8
20260503004658 71 51 2.0 3.0 0.00 0.00 0.00 48 1021.6
20260503004157 71 80 3.0 4.0 0.00 0.00 0.00 46 1021.6
20260503003654 71 72 2.0 3.0 0.00 0.00 0.00 46 1021.6
20260503003151 71 29 3.0 3.0 0.00 0.00 0.00 45 1021.5
20260503002647 72 52 1.0 1.0 0.00 0.00 0.00 47 1021.4
20260503002144 72 45 2.0 2.0 0.00 0.00 0.00 45 1021.6
20260503001640 72 103 2.0 2.0 0.00 0.00 0.00 44 1021.6
20260503001137 72 42 3.0 4.0 0.00 0.00 0.00 44 1021.5
20260503000635 72 70 3.0 4.0 0.00 0.00 0.00 44 1021.3
20260503000132 72 52 4.0 6.0 0.00 0.00 0.00 43 1021.4
20260502235628 73 341 3.0 4.0 0.00 0.00 0.00 43 1021.4
20260502235126 73 79 1.0 1.0 0.00 0.00 0.00 42 1021.5
20260502234622 73 99 4.0 4.0 0.00 0.00 0.00 41 1021.4
20260502234120 73 24 0.0 2.0 0.00 0.00 0.00 42 1021.4
20260502233615 73 359 4.0 6.0 0.00 0.00 0.00 41 1021.5
20260502233112 74 358 4.0 6.0 0.00 0.00 0.00 41 1021.5
20260502232609 73 312 2.0 3.0 0.00 0.00 0.00 41 1021.4
20260502232106 73 28 4.0 6.0 0.00 0.00 0.00 40 1021.3
20260502231602 73 58 1.0 1.0 0.00 0.00 0.00 41 1021.1
20260502231101 73 39 4.0 4.0 0.00 0.00 0.00 40 1021.3
20260502230558 74 320 1.0 1.0 0.00 0.00 0.00 39 1021.3
20260502230056 73 343 3.0 3.0 0.00 0.00 0.00 41 1021.3
20260502225552 74 351 2.0 3.0 0.00 0.00 0.00 40 1021.3
20260502225050 74 332 4.0 4.0 0.00 0.00 0.00 41 1021.2
20260502224545 74 6 6.0 8.0 0.00 0.00 0.00 41 1021.2
20260502224042 73 12 2.0 3.0 0.00 0.00 0.00 40 1021.4
20260502223540 73 335 3.0 4.0 0.00 0.00 0.00 39 1021.3
20260502223038 73 69 2.0 3.0 0.00 0.00 0.00 42 1021.2
20260502222535 74 64 2.0 2.0 0.00 0.00 0.00 42 1021.4
20260502222032 74 348 7.0 10.0 0.00 0.00 0.00 43 1021.2
20260502221527 73 39 3.0 6.0 0.00 0.00 0.00 44 1021.4
20260502221025 73 24 7.0 9.0 0.00 0.00 0.00 43 1021.3
20260502220520 73 63 1.0 1.0 0.00 0.00 0.00 44 1021.5
20260502220017 74 349 4.0 4.0 0.00 0.00 0.00 42 1021.3
20260502215515 73 49 3.0 4.0 0.00 0.00 0.00 43 1021.5
20260502215011 74 337 2.0 3.0 0.00 0.00 0.00 44 1021.7
20260502214508 73 343 5.0 6.0 0.00 0.00 0.00 43 1021.6
20260502214006 73 0 3.0 4.0 0.00 0.00 0.00 43 1021.6
20260502213502 73 341 5.0 7.0 0.00 0.00 0.00 43 1021.7
20260502213000 73 14 5.0 9.0 0.00 0.00 0.00 42 1021.9
20260502212459 73 359 6.0 8.0 0.00 0.00 0.00 42 1021.8
20260502211955 73 4 7.0 9.0 0.00 0.00 0.00 43 1021.9
20260502211451 73 41 4.0 7.0 0.00 0.00 0.00 41 1021.8
20260502210949 73 24 3.0 4.0 0.00 0.00 0.00 42 1022.0
20260502210445 73 335 7.0 9.0 0.00 0.00 0.00 42 1022.2
20260502205943 73 340 7.0 8.0 0.00 0.00 0.00 42 1022.1
20260502205439 73 6 9.0 10.0 0.00 0.00 0.00 41 1022.4
20260502204936 72 357 4.0 7.0 0.00 0.00 0.00 42 1022.5
20260502204433 73 11 6.0 9.0 0.00 0.00 0.00 42 1022.5
20260502203931 73 1 5.0 7.0 0.00 0.00 0.00 43 1022.4
20260502203428 73 24 2.0 4.0 0.00 0.00 0.00 46 1022.5
20260502202924 72 10 4.0 6.0 0.00 0.00 0.00 43 1022.6
20260502202421 73 359 2.0 3.0 0.00 0.00 0.00 45 1022.6
20260502201919 73 65 5.0 7.0 0.00 0.00 0.00 43 1022.8
20260502201415 72 22 4.0 4.0 0.00 0.00 0.00 42 1022.8
20260502200912 72 9 2.0 4.0 0.00 0.00 0.00 44 1022.9
20260502200407 72 319 9.0 11.0 0.00 0.00 0.00 42 1022.8
20260502195906 73 26 9.0 11.0 0.00 0.00 0.00 42 1022.8
20260502195402 72 273 5.0 10.0 0.00 0.00 0.00 42 1022.5
20260502194859 72 346 2.0 2.0 0.00 0.00 0.00 43 1022.6
20260502194355 73 353 2.0 3.0 0.00 0.00 0.00 44 1022.8
20260502193851 72 11 2.0 4.0 0.00 0.00 0.00 44 1022.6
20260502193349 71 325 2.0 3.0 0.00 0.00 0.00 44 1022.6
20260502192844 71 28 5.0 7.0 0.00 0.00 0.00 43 1023.1
20260502192341 72 47 2.0 3.0 0.00 0.00 0.00 45 1022.9
20260502191838 71 36 4.0 6.0 0.00 0.00 0.00 46 1023.0
20260502191337 71 11 4.0 7.0 0.00 0.00 0.00 48 1022.8
20260502190833 71 296 2.0 2.0 0.00 0.00 0.00 48 1023.0
20260502190331 71 339 6.0 10.0 0.00 0.00 0.00 48 1023.0
20260502185826 70 24 4.0 4.0 0.00 0.00 0.00 48 1023.2
20260502185322 71 82 3.0 4.0 0.00 0.00 0.00 49 1023.0
20260502184820 71 27 4.0 4.0 0.00 0.00 0.00 50 1023.0
20260502184315 70 340 6.0 7.0 0.00 0.00 0.00 47 1023.3
20260502183812 69 12 3.0 3.0 0.00 0.00 0.00 49 1023.1
20260502183308 70 310 4.0 4.0 0.00 0.00 0.00 53 1023.3
20260502182803 70 27 5.0 7.0 0.00 0.00 0.00 53 1023.4
20260502182259 69 42 7.0 9.0 0.00 0.00 0.00 54 1023.6
20260502181755 69 347 8.0 10.0 0.00 0.00 0.00 53 1023.6
20260502181255 69 309 3.0 4.0 0.00 0.00 0.00 53 1023.6
20260502180752 70 345 8.0 9.0 0.00 0.00 0.00 54 1023.9
20260502180249 69 19 4.0 4.0 0.00 0.00 0.00 53 1023.9
20260502170214 67 12 1.0 2.0 0.00 0.00 0.00 60 1024.3
20260502164201 66 313 8.0 9.0 0.00 0.00 0.00 59 1024.6
20260502163655 66 343 5.0 8.0 0.00 0.00 0.00 60 1024.7
20260502163153 65 314 4.0 6.0 0.00 0.00 0.00 59 1024.8
20260502162650 65 11 5.0 7.0 0.00 0.00 0.00 58 1024.7
20260502162147 66 4 6.0 9.0 0.00 0.00 0.00 57 1024.7
20260502161644 66 2 3.0 4.0 0.00 0.00 0.00 59 1024.6
20260502161140 65 357 5.0 7.0 0.00 0.00 0.00 58 1024.6
20260502160638 66 352 2.0 6.0 0.00 0.00 0.00 59 1024.6
20260502160137 65 5 3.0 4.0 0.00 0.00 0.00 58 1024.6
20260502152051 63 30 2.0 2.0 0.00 0.00 0.00 64 1024.8
20260502151548 62 346 4.0 6.0 0.00 0.00 0.00 63 1024.6
20260502151046 62 346 6.0 7.0 0.00 0.00 0.00 63 1024.5
20260502150543 62 337 4.0 6.0 0.00 0.00 0.00 66 1024.5
20260502130422 53 318 4.0 6.0 0.00 0.00 0.00 89 1023.5
20260502123404 50 331 2.0 2.0 0.00 0.00 0.00 94 1022.9
20260502122901 50 298 4.0 4.0 0.00 0.00 0.00 94 1022.8
20260502122357 50 319 2.0 2.0 0.00 0.00 0.00 95 1022.8
20260502121856 50 292 1.0 2.0 0.00 0.00 0.00 95 1022.8
20260502121353 50 292 3.0 3.0 0.00 0.00 0.00 95 1022.5
20260502120851 50 281 3.0 3.0 0.00 0.00 0.00 95 1022.4
20260502120346 49 298 2.0 3.0 0.00 0.00 0.00 96 1022.3
20260502115844 49 278 2.0 2.0 0.00 0.00 0.00 96 1022.2
20260502115341 50 288 2.0 2.0 0.00 0.00 0.00 96 1022.2
20260502114837 50 311 2.0 3.0 0.00 0.00 0.00 95 1022.0
20260502114334 50 288 2.0 3.0 0.00 0.00 0.00 95 1022.3
20260502113831 50 290 2.0 2.0 0.00 0.00 0.00 95 1022.0
20260502113328 50 285 2.0 2.0 0.00 0.00 0.00 95 1022.1
20260502112827 50 285 1.0 1.0 0.00 0.00 0.00 95 1022.1
20260502112324 50 291 0.0 0.0 0.00 0.00 0.00 93 1021.8
20260502111821 50 272 0.0 0.0 0.00 0.00 0.00 93 1022.0
20260502111319 50 280 0.0 0.0 0.00 0.00 0.00 93 1021.9
20260502110816 50 262 1.0 1.0 0.00 0.00 0.00 93 1021.9
20260502110314 50 283 2.0 2.0 0.00 0.00 0.00 93 1021.7
20260502105811 50 233 0.0 0.0 0.00 0.00 0.00 93 1021.5
20260502105308 50 224 2.0 2.0 0.00 0.00 0.00 94 1021.4
20260502104806 50 243 0.0 0.0 0.00 0.00 0.00 94 1021.5
20260502104302 51 232 2.0 2.0 0.00 0.00 0.00 93 1021.3
20260502103800 51 280 1.0 1.0 0.00 0.00 0.00 93 1021.2
20260502103257 51 298 1.0 2.0 0.00 0.00 0.00 92 1021.0
20260502102755 51 318 2.0 2.0 0.00 0.00 0.00 92 1021.0
20260502102250 51 338 2.0 3.0 0.00 0.00 0.00 92 1020.6
20260502101749 51 331 2.0 3.0 0.00 0.00 0.00 92 1020.7
20260502101247 51 343 4.0 7.0 0.00 0.00 0.00 92 1020.7
20260502100744 51 329 2.0 3.0 0.00 0.00 0.00 91 1020.6
20260502100243 51 335 2.0 2.0 0.00 0.00 0.00 90 1020.7
20260502091217 52 8 2.0 2.0 0.00 0.00 0.00 92 1020.1
20260502090714 52 356 3.0 4.0 0.00 0.00 0.00 92 1020.1
20260502090211 52 347 6.0 8.0 0.00 0.00 0.00 92 1020.2
20260502071107 52 339 2.0 4.0 0.00 0.00 0.00 94 1020.0
20260502070605 52 318 1.0 1.0 0.00 0.00 0.00 94 1020.2
20260502065601 52 332 4.0 4.0 0.00 0.00 0.00 94 1020.0
20260502065058 52 341 0.0 1.0 0.00 0.00 0.00 94 1020.0
20260502064556 52 336 2.0 3.0 0.00 0.00 0.00 94 1020.1
20260502064053 52 334 2.0 2.0 0.00 0.00 0.00 94 1020.1
20260502063551 52 317 1.0 2.0 0.00 0.00 0.00 94 1020.0
20260502063049 52 359 2.0 3.0 0.00 0.00 0.00 94 1020.0
20260502062545 53 349 1.0 1.0 0.00 0.00 0.00 94 1019.9
20260502062044 53 347 2.0 2.0 0.00 0.00 0.00 93 1020.1
20260502061541 53 324 4.0 7.0 0.00 0.00 0.00 93 1020.2
20260502061038 53 356 1.0 2.0 0.00 0.00 0.00 93 1020.1
20260502060534 53 345 3.0 4.0 0.00 0.00 0.00 93 1020.2
20260502060031 53 316 1.0 2.0 0.00 0.00 0.00 93 1020.2
20260502055528 53 345 4.0 6.0 0.00 0.00 0.00 93 1020.2
20260502055027 53 341 3.0 4.0 0.00 0.00 0.00 93 1020.1
20260502054525 53 318 2.0 2.0 0.00 0.00 0.00 94 1020.2
20260502054022 53 347 4.0 6.0 0.00 0.00 0.00 95 1020.2
20260502053519 53 316 2.0 3.0 0.00 0.00 0.00 94 1020.1
20260502053017 53 338 0.0 1.0 0.00 0.00 0.00 93 1020.0
20260502052515 53 326 2.0 3.0 0.00 0.00 0.00 93 1020.2
20260502052013 53 319 1.0 2.0 0.00 0.00 0.00 93 1020.0
20260502051511 53 340 2.0 2.0 0.00 0.00 0.00 92 1019.9
20260502051008 54 356 2.0 3.0 0.00 0.00 0.00 92 1019.8
20260502050504 54 15 2.0 3.0 0.00 0.00 0.00 92 1020.0
20260502050001 54 340 2.0 4.0 0.00 1.12 1.12 92 1020.1
20260502045458 54 341 4.0 6.0 0.00 1.12 1.12 91 1020.0
20260502044955 54 331 5.0 7.0 0.00 1.12 1.12 91 1019.9